Location: Central Coast
(33.3208°S, 151.2336°E)
Time: 15:16:19
(UTC+11:00)

Tiangong 2 - Pass Details

Date: 14 October 2017
Orbit: 388 x 391 km, 42.8° (Epoch: 22 October)

Event Time Altitude Azimuth Distance (km) Brightness Sun altitude
Rises 20:50:02 0° 241° (WSW) 2,297 6.6 -21.2°
Reaches altitude 10° 20:52:08 10° 242° (WSW) 1,435 5.1 -21.6°
Enters shadow 20:54:41 52° 253° (WSW) 499 1.9 -22.1°
